AF6GL Weather Reports


Display with metric or nautical units.
time (UTC)temp
F
wind
direction
speed
MPH
gust
MPH
rain 1hr
in
rain 24hr
in
rain mn
in
humidity
%
barometer
mb
20171216125957 44 95 1.0 2.0 0.00 0.00 0.00 44 1007.4
20171216124958 44 106 2.0 3.0 0.00 0.00 0.00 44 1007.3
20171216123959 44 88 1.0 3.0 0.00 0.00 0.00 44 1007.6
20171216122954 44 124 0.0 2.0 0.00 0.00 0.00 45 1007.5
20171216121953 45 68 0.0 2.0 0.00 0.00 0.00 43 1007.6
20171216120953 45 133 1.0 3.0 0.00 0.00 0.00 45 1007.7
20171216115953 45 105 2.0 5.0 0.00 0.00 0.00 44 1008.1
20171216114949 45 115 1.0 4.0 0.00 0.00 0.00 42 1008.7
20171216113951 44 103 1.0 3.0 0.00 0.00 0.00 44 1009.0
20171216112954 44 118 1.0 3.0 0.00 0.00 0.00 44 1009.2
20171216111951 44 88 0.0 2.0 0.00 0.00 0.00 43 1009.5
20171216110949 44 81 2.0 5.0 0.00 0.00 0.00 42 1009.6
20171216105952 45 70 2.0 5.0 0.00 0.00 0.00 42 1009.6
20171216104947 45 94 2.0 4.0 0.00 0.00 0.00 44 1009.8
20171216103947 45 140 2.0 4.0 0.00 0.00 0.00 43 1009.9
20171216102952 46 108 1.0 5.0 0.00 0.00 0.00 39 1010.4
20171216101954 46 78 2.0 5.0 0.00 0.00 0.00 39 1010.5
20171216100947 46 96 2.0 5.0 0.00 0.00 0.00 39 1010.5
20171216095952 46 79 2.0 6.0 0.00 0.00 0.00 39 1010.4
20171216094947 46 75 2.0 5.0 0.00 0.00 0.00 39 1010.4
20171216093947 46 72 3.0 5.0 0.00 0.00 0.00 39 1010.5
20171216092948 46 70 3.0 5.0 0.00 0.00 0.00 39 1010.6
20171216091950 46 38 2.0 5.0 0.00 0.00 0.00 38 1010.7
20171216090943 47 46 2.0 4.0 0.00 0.00 0.00 37 1010.7
20171216085943 47 105 2.0 5.0 0.00 0.00 0.00 36 1011.0
20171216084943 47 84 3.0 6.0 0.00 0.00 0.00 37 1011.3
20171216083949 46 67 2.0 4.0 0.00 0.00 0.00 38 1011.6
20171216082942 46 66 1.0 3.0 0.00 0.00 0.00 38 1011.6
20171216081943 46 81 1.0 2.0 0.00 0.00 0.00 41 1011.7
20171216080945 45 86 1.0 2.0 0.00 0.00 0.00 47 1011.8
20171216075953 46 111 1.0 2.0 0.00 0.00 0.00 45 1012.1
20171216074943 46 102 1.0 3.0 0.00 0.00 0.00 42 1012.4
20171216073944 46 68 1.0 2.0 0.00 0.00 0.00 41 1012.5
20171216072948 46 78 0.0 1.0 0.00 0.00 0.00 49 1012.6
20171216071942 46 115 0.0 1.0 0.00 0.00 0.00 48 1012.8
20171216070943 46 143 0.0 2.0 0.00 0.00 0.00 47 1012.8
20171216065938 48 110 1.0 4.0 0.00 0.00 0.00 40 1012.9
20171216064939 48 96 0.0 2.0 0.00 0.00 0.00 38 1013.0
20171216063939 48 96 1.0 3.0 0.00 0.00 0.00 38 1012.9
20171216062944 49 89 2.0 4.0 0.00 0.00 0.00 35 1013.0
20171216061937 49 101 1.0 3.0 0.00 0.00 0.00 35 1013.1
20171216060941 49 91 1.0 3.0 0.00 0.00 0.00 34 1013.0
20171216055940 50 68 2.0 6.0 0.00 0.00 0.00 34 1013.1
20171216054937 50 63 2.0 5.0 0.00 0.00 0.00 33 1013.3
20171216053942 49 72 3.0 6.0 0.00 0.00 0.00 34 1013.4
20171216052941 49 57 2.0 5.0 0.00 0.00 0.00 34 1013.6
20171216051936 49 55 2.0 3.0 0.00 0.00 0.00 35 1013.6
20171216051036 50 61 2.0 4.0 0.00 0.00 0.00 34 1013.2
20171216050024 51 68 1.0 3.0 0.00 0.00 0.00 35 1013.4
20171216044935 52 82 0.0 2.0 0.00 0.00 0.00 36 1013.4
20171216043940 51 115 1.0 2.0 0.00 0.00 0.00 41 1013.4
20171216042936 51 108 2.0 4.0 0.00 0.00 0.00 36 1013.7
20171216041936 51 91 1.0 2.0 0.00 0.00 0.00 34 1013.8
20171216040933 52 63 1.0 2.0 0.00 0.00 0.00 39 1013.8
20171216035933 52 89 0.0 2.0 0.00 0.00 0.00 40 1013.6
20171216034933 52 116 0.0 2.0 0.00 0.00 0.00 40 1013.7
20171216033934 53 127 1.0 3.0 0.00 0.00 0.00 38 1013.7
20171216032930 53 76 0.0 1.0 0.00 0.00 0.00 38 1013.8
20171216031930 54 113 0.0 1.0 0.00 0.00 0.00 37 1013.8
20171216030933 54 120 0.0 2.0 0.00 0.00 0.00 36 1013.7
20171216025940 55 129 1.0 2.0 0.00 0.00 0.00 37 1013.8
20171216024939 56 122 0.0 1.0 0.00 0.00 0.00 35 1013.9
20171216023931 58 120 0.0 1.0 0.00 0.00 0.00 35 1013.8
20171216022937 59 119 1.0 3.0 0.00 0.00 0.00 33 1013.8
20171216021930 60 123 1.0 2.0 0.00 0.00 0.00 33 1013.9
20171216020932 61 132 2.0 3.0 0.00 0.00 0.00 33 1014.0
20171216015935 62 152 3.0 4.0 0.00 0.00 0.00 32 1014.0
20171216014933 63 141 3.0 4.0 0.00 0.00 0.00 30 1014.1
20171216013931 64 153 3.0 4.0 0.00 0.00 0.00 28 1014.1
20171216012930 65 148 3.0 5.0 0.00 0.00 0.00 28 1014.1
20171216011928 67 155 2.0 4.0 0.00 0.00 0.00 24 1014.3
20171216010930 67 169 2.0 4.0 0.00 0.00 0.00 21 1014.4
20171216005934 69 160 1.0 4.0 0.00 0.00 0.00 17 1014.5
20171216004928 70 164 1.0 6.0 0.00 0.00 0.00 16 1014.3
20171216003928 71 188 1.0 3.0 0.00 0.00 0.00 14 1014.3
20171216002931 73 201 1.0 5.0 0.00 0.00 0.00 13 1014.1
20171216001928 74 218 1.0 5.0 0.00 0.00 0.00 13 1014.2
20171216000928 75 242 2.0 5.0 0.00 0.00 0.00 12 1014.1
20171215235929 75 174 2.0 6.0 0.00 0.00 0.00 12 1014.1
20171215234930 76 257 2.0 6.0 0.00 0.00 0.00 12 1014.2
20171215233930 76 221 3.0 7.0 0.00 0.00 0.00 12 1014.4
20171215232929 76 210 3.0 7.0 0.00 0.00 0.00 12 1014.5
20171215231931 77 256 4.0 10.0 0.00 0.00 0.00 12 1014.6
20171215230939 77 271 4.0 11.0 0.00 0.00 0.00 13 1014.9
20171215225928 77 257 4.0 8.0 0.00 0.00 0.00 14 1014.8
20171215224931 77 281 4.0 8.0 0.00 0.00 0.00 13 1014.8
20171215223933 78 264 3.0 7.0 0.00 0.00 0.00 13 1014.9
20171215222928 78 277 3.0 7.0 0.00 0.00 0.00 13 1014.9
20171215221935 78 271 4.0 7.0 0.00 0.00 0.00 14 1015.0
20171215220928 78 314 5.0 10.0 0.00 0.00 0.00 14 1015.3
20171215215929 77 247 6.0 12.0 0.00 0.00 0.00 14 1015.6
20171215214928 78 293 4.0 8.0 0.00 0.00 0.00 14 1015.7
20171215213928 77 260 6.0 11.0 0.00 0.00 0.00 15 1015.8
20171215212930 78 249 6.0 11.0 0.00 0.00 0.00 14 1015.8
20171215211928 78 280 5.0 11.0 0.00 0.00 0.00 13 1016.0
20171215210929 78 285 5.0 9.0 0.00 0.00 0.00 16 1016.1
20171215205929 78 263 6.0 11.0 0.00 0.00 0.00 14 1016.3
20171215204934 77 269 6.0 10.0 0.00 0.00 0.00 14 1016.4
20171215203929 77 283 5.0 10.0 0.00 0.00 0.00 16 1016.6
20171215202930 77 222 4.0 7.0 0.00 0.00 0.00 15 1016.7
20171215201935 77 255 4.0 9.0 0.00 0.00 0.00 16 1017.0
20171215200929 77 299 4.0 8.0 0.00 0.00 0.00 19 1017.2
20171215195927 77 262 4.0 9.0 0.00 0.00 0.00 22 1017.4
20171215194934 78 272 2.0 7.0 0.00 0.00 0.00 18 1017.6
20171215193927 77 320 2.0 6.0 0.00 0.00 0.00 16 1017.8
20171215192933 77 270 2.0 4.0 0.00 0.00 0.00 14 1018.2
20171215191926 76 307 2.0 4.0 0.00 0.00 0.00 12 1018.4
20171215190926 76 272 2.0 5.0 0.00 0.00 0.00 12 1018.6
20171215185925 76 302 0.0 3.0 0.00 0.00 0.00 12 1018.8
20171215184923 75 281 1.0 3.0 0.00 0.00 0.00 14 1018.8
20171215183926 73 58 2.0 3.0 0.00 0.00 0.00 14 1019.0
20171215182928 72 45 2.0 6.0 0.00 0.00 0.00 16 1019.2
20171215181922 71 66 1.0 4.0 0.00 0.00 0.00 17 1019.2
20171215180923 69 40 2.0 6.0 0.00 0.00 0.00 20 1019.3
20171215175922 67 48 2.0 5.0 0.00 0.00 0.00 21 1019.4
20171215174926 66 59 1.0 3.0 0.00 0.00 0.00 22 1019.5
20171215173922 64 53 2.0 4.0 0.00 0.00 0.00 23 1019.4
20171215172923 63 52 2.0 4.0 0.00 0.00 0.00 24 1019.5
20171215171921 61 73 1.0 4.0 0.00 0.00 0.00 24 1019.5
20171215170922 60 63 3.0 6.0 0.00 0.00 0.00 25 1019.5
20171215165917 59 89 4.0 7.0 0.00 0.00 0.00 24 1019.4
20171215164922 58 52 4.0 9.0 0.00 0.00 0.00 25 1019.4
20171215163914 55 45 4.0 8.0 0.00 0.00 0.00 26 1019.2
20171215162919 53 48 2.0 8.0 0.00 0.00 0.00 29 1019.1
20171215161914 51 88 3.0 8.0 0.00 0.00 0.00 31 1018.9
20171215160914 50 71 2.0 5.0 0.00 0.00 0.00 32 1018.8
20171215155916 49 60 2.0 9.0 0.00 0.00 0.00 33 1018.8
20171215154915 48 88 3.0 5.0 0.00 0.00 0.00 34 1018.6
20171215153919 46 53 2.0 6.0 0.00 0.00 0.00 36 1018.6
20171215152918 45 82 2.0 5.0 0.00 0.00 0.00 39 1018.7
20171215151915 44 54 3.0 7.0 0.00 0.00 0.00 39 1018.7
20171215150914 44 83 3.0 6.0 0.00 0.00 0.00 38 1018.6
20171215145912 44 114 3.0 8.0 0.00 0.00 0.00 38 1018.7
20171215144914 44 76 3.0 8.0 0.00 0.00 0.00 39 1018.7
20171215143917 44 52 2.0 7.0 0.00 0.00 0.00 38 1018.6
20171215142912 44 57 1.0 3.0 0.00 0.00 0.00 39 1018.6
20171215141911 44 66 3.0 7.0 0.00 0.00 0.00 39 1018.4
20171215140910 43 78 1.0 4.0 0.00 0.00 0.00 41 1018.3
20171215135912 44 109 2.0 6.0 0.00 0.00 0.00 39 1018.3
20171215134909 45 77 3.0 6.0 0.00 0.00 0.00 38 1018.2
20171215133908 45 101 2.0 5.0 0.00 0.00 0.00 38 1018.0
20171215132909 45 71 2.0 7.0 0.00 0.00 0.00 38 1017.9
20171215131910 46 62 2.0 6.0 0.00 0.00 0.00 37 1017.8
20171215130908 47 70 5.0 10.0 0.00 0.00 0.00 36 1017.6